| time (UTC) | temp F | wind direction | speed knots | gust knots | rain 1hr in | rain 24hr in | rain mn in | humidity % | barometer mb |
| 20260508122035 | 58 | 279 | 4.3 | 10.4 | 0.00 | 0.00 | 0.00 | 63 | 1017.4 |
| 20260508121549 | 58 | 295 | 4.3 | 8.7 | 0.00 | 0.00 | 0.00 | 64 | 1017.4 |
| 20260508121035 | 58 | 291 | 3.5 | 7.8 | 0.00 | 0.00 | 0.00 | 62 | 1017.3 |
| 20260508120536 | 58 | 273 | 2.6 | 8.7 | 0.00 | 0.00 | 0.00 | 60 | 1017.3 |
| 20260508120048 | 58 | 20 | 3.5 | 8.7 | 0.00 | 0.00 | 0.00 | 60 | 1017.3 |
| 20260508115535 | 59 | 332 | 4.3 | 8.7 | 0.00 | 0.00 | 0.00 | 58 | 1017.3 |
| 20260508115036 | 59 | 306 | 2.6 | 6.1 | 0.00 | 0.00 | 0.00 | 59 | 1017.3 |
| 20260508114546 | 59 | 51 | 0.9 | 3.5 | 0.00 | 0.00 | 0.00 | 61 | 1017.2 |
| 20260508114036 | 59 | 1 | 0.9 | 2.6 | 0.00 | 0.00 | 0.00 | 62 | 1017.2 |
| 20260508113536 | 59 | 0 | 0.0 | 3.5 | 0.00 | 0.00 | 0.00 | 62 | 1017.2 |
| 20260508113108 | 58 | 135 | 0.0 | 4.3 | 0.00 | 0.00 | 0.00 | 60 | 1017.2 |
| 20260508112538 | 58 | 206 | 1.7 | 6.1 | 0.00 | 0.00 | 0.00 | 60 | 1017.2 |
| 20260508112037 | 58 | 0 | 0.9 | 6.1 | 0.00 | 0.00 | 0.00 | 61 | 1017.2 |
| 20260508111548 | 58 | 218 | 0.9 | 4.3 | 0.00 | 0.00 | 0.00 | 60 | 1017.3 |
| 20260508111033 | 58 | 220 | 0.0 | 2.6 | 0.00 | 0.00 | 0.00 | 60 | 1017.1 |
| 20260508110535 | 58 | 246 | 0.9 | 3.5 | 0.00 | 0.00 | 0.00 | 60 | 1017.2 |
| 20260508110050 | 58 | 178 | 0.9 | 5.2 | 0.00 | 0.00 | 0.00 | 62 | 1017.0 |
| 20260508105539 | 58 | 145 | 0.9 | 7.8 | 0.00 | 0.00 | 0.00 | 61 | 1017.1 |
| 20260508105034 | 59 | 296 | 2.6 | 8.7 | 0.00 | 0.00 | 0.00 | 60 | 1017.2 |
| 20260508104555 | 59 | 312 | 3.5 | 8.7 | 0.00 | 0.00 | 0.00 | 59 | 1017.2 |
| 20260508104034 | 60 | 214 | 1.7 | 7.8 | 0.00 | 0.00 | 0.00 | 60 | 1017.1 |
| 20260508103534 | 60 | 301 | 1.7 | 7.8 | 0.00 | 0.00 | 0.00 | 58 | 1017.1 |
| 20260508103055 | 60 | 237 | 0.9 | 5.2 | 0.00 | 0.00 | 0.00 | 63 | 1017.1 |
| 20260508102534 | 59 | 298 | 0.9 | 7.0 | 0.00 | 0.00 | 0.00 | 62 | 1017.1 |
| 20260508102034 | 58 | 1 | 1.7 | 7.0 | 0.00 | 0.00 | 0.00 | 63 | 1017.0 |
| 20260508101547 | 57 | 294 | 2.6 | 6.1 | 0.00 | 0.00 | 0.00 | 63 | 1017.0 |
| 20260508101035 | 57 | 285 | 1.7 | 5.2 | 0.00 | 0.00 | 0.00 | 64 | 1017.0 |
| 20260508100535 | 56 | 326 | 1.7 | 4.3 | 0.00 | 0.00 | 0.00 | 65 | 1017.0 |
| 20260508100043 | 57 | 0 | 0.9 | 4.3 | 0.00 | 0.00 | 0.00 | 65 | 1017.0 |
| 20260508095535 | 57 | 287 | 1.7 | 4.3 | 0.00 | 0.00 | 0.00 | 64 | 1017.0 |
| 20260508095035 | 57 | 354 | 0.9 | 4.3 | 0.00 | 0.00 | 0.00 | 64 | 1017.0 |
| 20260508094542 | 57 | 289 | 0.0 | 4.3 | 0.00 | 0.00 | 0.00 | 65 | 1017.0 |
| 20260508094034 | 58 | 281 | 0.9 | 3.5 | 0.00 | 0.00 | 0.00 | 63 | 1017.0 |
| 20260508093535 | 58 | 285 | 0.9 | 7.0 | 0.00 | 0.00 | 0.00 | 63 | 1017.0 |
| 20260508093050 | 59 | 216 | 1.7 | 7.0 | 0.00 | 0.00 | 0.00 | 64 | 1016.9 |
| 20260508092535 | 59 | 225 | 2.6 | 7.0 | 0.00 | 0.00 | 0.00 | 64 | 1016.9 |
| 20260508092034 | 59 | 201 | 1.7 | 7.0 | 0.00 | 0.00 | 0.00 | 63 | 1016.8 |
| 20260508091549 | 60 | 223 | 1.7 | 7.0 | 0.00 | 0.00 | 0.00 | 66 | 1016.8 |
| 20260508091034 | 59 | 191 | 1.7 | 6.1 | 0.00 | 0.00 | 0.00 | 67 | 1016.8 |
| 20260508090535 | 59 | 117 | 0.9 | 6.1 | 0.00 | 0.00 | 0.00 | 66 | 1016.8 |
| 20260508090051 | 59 | 135 | 2.6 | 6.1 | 0.00 | 0.00 | 0.00 | 68 | 1016.8 |
| 20260508085534 | 59 | 152 | 0.9 | 7.8 | 0.00 | 0.00 | 0.00 | 70 | 1016.9 |
| 20260508085034 | 58 | 184 | 3.5 | 7.8 | 0.00 | 0.00 | 0.00 | 71 | 1016.8 |
| 20260508084547 | 57 | 194 | 2.6 | 7.8 | 0.00 | 0.00 | 0.00 | 72 | 1016.8 |
| 20260508084035 | 57 | 161 | 2.6 | 7.8 | 0.00 | 0.00 | 0.00 | 72 | 1016.7 |
| 20260508083535 | 56 | 204 | 2.6 | 6.1 | 0.00 | 0.00 | 0.00 | 74 | 1016.7 |
| 20260508083043 | 56 | 187 | 3.5 | 6.1 | 0.00 | 0.00 | 0.00 | 74 | 1016.6 |
| 20260508082534 | 55 | 201 | 0.9 | 6.1 | 0.00 | 0.00 | 0.00 | 75 | 1016.7 |
| 20260508082035 | 55 | 168 | 2.6 | 6.1 | 0.00 | 0.00 | 0.00 | 76 | 1016.6 |
| 20260508081550 | 55 | 178 | 1.7 | 6.1 | 0.00 | 0.00 | 0.00 | 78 | 1016.6 |
| 20260508081035 | 54 | 170 | 1.7 | 7.8 | 0.00 | 0.00 | 0.00 | 79 | 1016.5 |
| 20260508080535 | 53 | 234 | 2.6 | 7.8 | 0.00 | 0.00 | 0.00 | 80 | 1016.6 |
| 20260508080050 | 52 | 174 | 4.3 | 7.8 | 0.00 | 0.00 | 0.00 | 81 | 1016.5 |
| 20260508075535 | 52 | 209 | 3.5 | 7.8 | 0.00 | 0.00 | 0.00 | 81 | 1016.6 |
| 20260508075034 | 51 | 193 | 4.3 | 7.8 | 0.00 | 0.00 | 0.00 | 82 | 1016.5 |
| 20260508074553 | 51 | 198 | 4.3 | 7.8 | 0.00 | 0.00 | 0.00 | 83 | 1016.5 |
| 20260508074035 | 51 | 194 | 3.5 | 7.0 | 0.00 | 0.00 | 0.00 | 84 | 1016.3 |
| 20260508073534 | 50 | 195 | 3.5 | 7.0 | 0.00 | 0.00 | 0.00 | 84 | 1016.4 |
| 20260508073048 | 50 | 209 | 4.3 | 7.0 | 0.00 | 0.00 | 0.00 | 85 | 1016.4 |
| 20260508072535 | 50 | 188 | 3.5 | 7.0 | 0.00 | 0.00 | 0.00 | 85 | 1016.4 |
| 20260508072035 | 49 | 196 | 3.5 | 7.0 | 0.00 | 0.00 | 0.00 | 86 | 1016.4 |
| 20260508071544 | 49 | 182 | 3.5 | 8.7 | 0.00 | 0.00 | 0.00 | 86 | 1016.3 |
| 20260508071033 | 49 | 196 | 2.6 | 8.7 | 0.00 | 0.00 | 0.00 | 87 | 1016.2 |
| 20260508070535 | 48 | 117 | 1.7 | 5.2 | 0.00 | 0.00 | 0.00 | 87 | 1016.2 |
| 20260508070045 | 48 | 184 | 1.7 | 5.2 | 0.00 | 0.00 | 0.00 | 87 | 1016.1 |
| 20260508065534 | 48 | 189 | 1.7 | 4.3 | 0.00 | 0.00 | 0.00 | 86 | 1016.0 |
| 20260508065034 | 48 | 149 | 0.9 | 4.3 | 0.00 | 0.00 | 0.00 | 86 | 1016.0 |
| 20260508064600 | 47 | 135 | 0.9 | 5.2 | 0.00 | 0.00 | 0.00 | 86 | 1016.0 |
| 20260508064037 | 47 | 178 | 0.9 | 5.2 | 0.00 | 0.00 | 0.00 | 87 | 1015.9 |
| 20260508063535 | 47 | 46 | 0.9 | 5.2 | 0.00 | 0.00 | 0.00 | 87 | 1015.9 |
| 20260508063050 | 47 | 209 | 1.7 | 5.2 | 0.00 | 0.00 | 0.00 | 87 | 1015.8 |
| 20260508062534 | 47 | 167 | 0.9 | 5.2 | 0.00 | 0.00 | 0.00 | 87 | 1015.8 |
| 20260508062034 | 47 | 197 | 0.0 | 3.5 | 0.00 | 0.00 | 0.00 | 88 | 1015.7 |
| 20260508061557 | 47 | 199 | 0.9 | 4.3 | 0.00 | 0.00 | 0.00 | 87 | 1015.7 |
| 20260508061035 | 47 | 209 | 0.9 | 4.3 | 0.00 | 0.00 | 0.00 | 88 | 1015.6 |
| 20260508060535 | 47 | 178 | 0.9 | 4.3 | 0.00 | 0.00 | 0.00 | 88 | 1015.5 |
| 20260508060050 | 47 | 130 | 1.7 | 5.2 | 0.00 | 0.00 | 0.00 | 88 | 1015.4 |
| 20260508055536 | 46 | 145 | 0.9 | 5.2 | 0.00 | 0.00 | 0.00 | 88 | 1015.4 |
| 20260508055036 | 46 | 197 | 0.9 | 3.5 | 0.00 | 0.00 | 0.00 | 88 | 1015.4 |
| 20260508054612 | 46 | 135 | 0.9 | 3.5 | 0.00 | 0.00 | 0.00 | 88 | 1015.3 |
| 20260508054035 | 46 | 216 | 0.9 | 4.3 | 0.00 | 0.00 | 0.00 | 89 | 1015.3 |
| 20260508053535 | 46 | 142 | 0.9 | 4.3 | 0.00 | 0.00 | 0.00 | 89 | 1015.2 |
| 20260508053045 | 46 | 223 | 0.9 | 4.3 | 0.00 | 0.00 | 0.00 | 89 | 1015.2 |
| 20260508052535 | 46 | 202 | 0.9 | 4.3 | 0.00 | 0.00 | 0.00 | 89 | 1015.1 |
| 20260508052034 | 46 | 171 | 0.9 | 3.5 | 0.00 | 0.00 | 0.00 | 89 | 1015.1 |
| 20260508051546 | 46 | 188 | 0.9 | 3.5 | 0.00 | 0.00 | 0.00 | 89 | 1015.0 |
| 20260508051035 | 46 | 178 | 0.9 | 4.3 | 0.00 | 0.00 | 0.00 | 89 | 1015.0 |
| 20260508050535 | 46 | 124 | 0.9 | 5.2 | 0.00 | 0.00 | 0.00 | 89 | 1015.1 |
| 20260508050054 | 45 | 165 | 1.7 | 7.0 | 0.00 | 0.00 | 0.00 | 89 | 1015.1 |
| 20260508045534 | 45 | 209 | 2.6 | 7.0 | 0.00 | 0.00 | 0.00 | 89 | 1015.0 |
| 20260508045034 | 45 | 192 | 3.5 | 7.0 | 0.00 | 0.00 | 0.00 | 89 | 1014.9 |
| 20260508044547 | 45 | 206 | 2.6 | 6.1 | 0.00 | 0.00 | 0.00 | 89 | 1015.0 |
| 20260508044035 | 45 | 206 | 2.6 | 6.1 | 0.00 | 0.00 | 0.00 | 89 | 1014.9 |
| 20260508043535 | 45 | 207 | 3.5 | 6.1 | 0.00 | 0.00 | 0.00 | 89 | 1014.8 |
| 20260508043054 | 45 | 186 | 1.7 | 7.8 | 0.00 | 0.00 | 0.00 | 89 | 1014.9 |
| 20260508042535 | 45 | 172 | 1.7 | 7.8 | 0.00 | 0.00 | 0.00 | 89 | 1014.8 |
| 20260508042038 | 44 | 152 | 1.7 | 6.1 | 0.00 | 0.00 | 0.00 | 89 | 1014.8 |
| 20260508041547 | 44 | 197 | 1.7 | 6.1 | 0.00 | 0.00 | 0.00 | 89 | 1014.8 |
| 20260508041035 | 44 | 171 | 1.7 | 5.2 | 0.00 | 0.00 | 0.00 | 89 | 1014.9 |
| 20260508040532 | 44 | 198 | 2.6 | 5.2 | 0.00 | 0.00 | 0.00 | 88 | 1014.8 |
| 20260508040055 | 43 | 190 | 0.9 | 3.5 | 0.00 | 0.00 | 0.00 | 88 | 1014.7 |
| 20260508035539 | 43 | 206 | 0.0 | 3.5 | 0.00 | 0.00 | 0.00 | 87 | 1014.8 |
| 20260508035036 | 43 | 0 | 0.0 | 2.6 | 0.00 | 0.00 | 0.00 | 87 | 1014.7 |
| 20260508034550 | 43 | 165 | 0.0 | 2.6 | 0.00 | 0.00 | 0.00 | 87 | 1014.8 |
| 20260508034035 | 43 | 0 | 0.0 | 2.6 | 0.00 | 0.00 | 0.00 | 86 | 1014.7 |
| 20260508033534 | 43 | 135 | 0.0 | 2.6 | 0.00 | 0.00 | 0.00 | 86 | 1014.7 |
| 20260508033050 | 44 | 0 | 0.0 | 2.6 | 0.00 | 0.00 | 0.00 | 86 | 1014.7 |
| 20260508032535 | 44 | 0 | 0.0 | 2.6 | 0.00 | 0.00 | 0.00 | 86 | 1014.6 |
| 20260508032035 | 44 | 135 | 0.0 | 2.6 | 0.00 | 0.00 | 0.00 | 87 | 1014.7 |
| 20260508031553 | 44 | 211 | 0.9 | 3.5 | 0.00 | 0.00 | 0.00 | 87 | 1014.7 |
| 20260508031034 | 44 | 135 | 0.9 | 3.5 | 0.00 | 0.00 | 0.00 | 87 | 1014.7 |
| 20260508030534 | 44 | 0 | 0.9 | 2.6 | 0.00 | 0.00 | 0.00 | 87 | 1014.8 |
| 20260508030052 | 44 | 193 | 0.9 | 2.6 | 0.00 | 0.00 | 0.00 | 87 | 1014.9 |
| 20260508025535 | 44 | 46 | 0.0 | 3.5 | 0.00 | 0.00 | 0.00 | 87 | 1014.6 |
| 20260508025037 | 44 | 0 | 0.9 | 3.5 | 0.00 | 0.00 | 0.00 | 87 | 1014.8 |
| 20260508024544 | 44 | 1 | 0.0 | 4.3 | 0.00 | 0.00 | 0.00 | 86 | 1014.6 |
| 20260508024035 | 44 | 152 | 0.9 | 4.3 | 0.00 | 0.00 | 0.00 | 86 | 1014.9 |
| 20260508023535 | 44 | 46 | 0.0 | 4.3 | 0.00 | 0.00 | 0.00 | 86 | 1014.8 |
| 20260508023051 | 45 | 0 | 0.9 | 2.6 | 0.00 | 0.00 | 0.00 | 86 | 1014.8 |
| 20260508022535 | 45 | 135 | 0.9 | 2.6 | 0.00 | 0.00 | 0.00 | 85 | 1014.8 |
| 20260508022035 | 45 | 46 | 0.0 | 2.6 | 0.00 | 0.00 | 0.00 | 85 | 1014.8 |
| 20260508021546 | 45 | 0 | 0.0 | 3.5 | 0.00 | 0.00 | 0.00 | 85 | 1014.7 |
| 20260508021035 | 45 | 0 | 0.0 | 3.5 | 0.00 | 0.00 | 0.00 | 85 | 1014.8 |
| 20260508020534 | 45 | 149 | 0.9 | 3.5 | 0.00 | 0.00 | 0.00 | 85 | 1014.9 |
| 20260508020050 | 45 | 246 | 0.0 | 2.6 | 0.00 | 0.00 | 0.00 | 85 | 1014.9 |
| 20260508015534 | 45 | 135 | 0.0 | 3.5 | 0.00 | 0.00 | 0.00 | 85 | 1014.7 |
| 20260508015035 | 45 | 72 | 0.9 | 3.5 | 0.00 | 0.00 | 0.00 | 85 | 1014.8 |
| 20260508014548 | 46 | 234 | 0.9 | 3.5 | 0.00 | 0.00 | 0.00 | 85 | 1014.8 |
| 20260508014034 | 46 | 195 | 0.9 | 3.5 | 0.00 | 0.00 | 0.00 | 85 | 1014.9 |
| 20260508013533 | 46 | 131 | 0.9 | 3.5 | 0.00 | 0.00 | 0.00 | 84 | 1014.9 |
| 20260508013047 | 46 | 0 | 0.0 | 2.6 | 0.00 | 0.00 | 0.00 | 84 | 1014.9 |
| 20260508012536 | 46 | 28 | 0.9 | 2.6 | 0.00 | 0.00 | 0.00 | 85 | 1014.9 |
| 20260508012035 | 47 | 206 | 0.9 | 3.5 | 0.00 | 0.00 | 0.00 | 85 | 1014.8 |
| 20260508011546 | 47 | 147 | 0.9 | 3.5 | 0.00 | 0.00 | 0.00 | 85 | 1014.8 |
| 20260508011036 | 47 | 124 | 0.9 | 3.5 | 0.00 | 0.00 | 0.00 | 84 | 1014.9 |
| 20260508010533 | 47 | 117 | 0.9 | 1.7 | 0.00 | 0.00 | 0.00 | 84 | 1014.9 |
| 20260508010043 | 47 | 152 | 0.0 | 2.6 | 0.00 | 0.00 | 0.00 | 84 | 1014.9 |
| 20260508005533 | 47 | 89 | 0.0 | 2.6 | 0.00 | 0.00 | 0.00 | 84 | 1014.9 |
| 20260508005037 | 47 | 178 | 0.0 | 1.7 | 0.00 | 0.00 | 0.00 | 84 | 1014.9 |
| 20260508004549 | 47 | 46 | 0.0 | 2.6 | 0.00 | 0.00 | 0.00 | 84 | 1014.8 |
| 20260508004033 | 47 | 89 | 0.0 | 3.5 | 0.00 | 0.00 | 0.00 | 84 | 1015.0 |
| 20260508003533 | 47 | 46 | 0.9 | 3.5 | 0.00 | 0.00 | 0.00 | 85 | 1014.9 |
| 20260508003048 | 47 | 89 | 0.9 | 3.5 | 0.00 | 0.00 | 0.00 | 85 | 1014.6 |
| 20260508002533 | 47 | 190 | 0.9 | 2.6 | 0.00 | 0.00 | 0.00 | 85 | 1014.7 |
| 20260508002034 | 47 | 170 | 0.9 | 2.6 | 0.00 | 0.00 | 0.00 | 85 | 1014.6 |
| 20260508001547 | 46 | 172 | 0.9 | 2.6 | 0.00 | 0.00 | 0.00 | 85 | 1014.8 |
| 20260508001033 | 46 | 0 | 0.9 | 3.5 | 0.00 | 0.00 | 0.00 | 84 | 1014.7 |
| 20260508000535 | 46 | 161 | 0.0 | 3.5 | 0.00 | 0.00 | 0.00 | 84 | 1014.8 |
| 20260508000105 | 46 | 157 | 0.0 | 2.6 | 0.00 | 0.00 | 0.00 | 84 | 1014.9 |
| 20260507235533 | 46 | 0 | 0.0 | 2.6 | 0.00 | 0.00 | 0.00 | 84 | 1014.7 |
| 20260507235032 | 46 | 152 | 0.0 | 3.5 | 0.00 | 0.00 | 0.00 | 84 | 1014.7 |
| 20260507234549 | 46 | 124 | 0.9 | 3.5 | 0.00 | 0.00 | 0.00 | 84 | 1014.8 |
| 20260507234032 | 46 | 178 | 0.0 | 3.5 | 0.00 | 0.00 | 0.00 | 84 | 1014.9 |
| 20260507233533 | 46 | 178 | 0.9 | 3.5 | 0.00 | 0.00 | 0.00 | 84 | 1014.7 |
| 20260507233049 | 46 | 162 | 0.9 | 2.6 | 0.00 | 0.00 | 0.00 | 83 | 1014.7 |
| 20260507232532 | 46 | 142 | 0.0 | 1.7 | 0.00 | 0.00 | 0.00 | 83 | 1014.7 |
| 20260507232034 | 46 | 0 | 0.0 | 1.7 | 0.00 | 0.00 | 0.00 | 83 | 1014.7 |
| 20260507231555 | 46 | 0 | 0.0 | 1.7 | 0.00 | 0.00 | 0.00 | 82 | 1014.7 |
| 20260507231033 | 46 | 0 | 0.0 | 2.6 | 0.00 | 0.00 | 0.00 | 81 | 1014.7 |
| 20260507230535 | 46 | 197 | 0.0 | 4.3 | 0.00 | 0.00 | 0.00 | 81 | 1014.8 |
| 20260507230047 | 46 | 0 | 0.9 | 4.3 | 0.00 | 0.00 | 0.00 | 81 | 1014.7 |
| 20260507225535 | 46 | 161 | 1.7 | 4.3 | 0.00 | 0.00 | 0.00 | 80 | 1014.7 |
| 20260507225032 | 47 | 188 | 0.9 | 3.5 | 0.00 | 0.00 | 0.00 | 80 | 1014.7 |
| 20260507224545 | 47 | 197 | 0.9 | 3.5 | 0.00 | 0.00 | 0.00 | 80 | 1014.6 |
| 20260507224035 | 47 | 0 | 0.0 | 3.5 | 0.00 | 0.00 | 0.00 | 80 | 1014.6 |
| 20260507223536 | 47 | 191 | 0.9 | 3.5 | 0.00 | 0.00 | 0.00 | 79 | 1014.6 |
| 20260507223043 | 47 | 178 | 0.0 | 4.3 | 0.00 | 0.00 | 0.00 | 79 | 1014.6 |
| 20260507222534 | 48 | 197 | 1.7 | 4.3 | 0.00 | 0.00 | 0.00 | 80 | 1014.5 |
| 20260507222035 | 48 | 195 | 2.6 | 4.3 | 0.00 | 0.00 | 0.00 | 79 | 1014.6 |
| 20260507221542 | 48 | 190 | 1.7 | 4.3 | 0.00 | 0.00 | 0.00 | 79 | 1014.5 |
| 20260507221034 | 48 | 185 | 1.7 | 4.3 | 0.00 | 0.00 | 0.00 | 79 | 1014.4 |
| 20260507220539 | 48 | 201 | 2.6 | 5.2 | 0.00 | 0.00 | 0.00 | 79 | 1014.4 |
| 20260507220048 | 49 | 194 | 2.6 | 5.2 | 0.00 | 0.00 | 0.00 | 78 | 1014.5 |
| 20260507215535 | 49 | 203 | 2.6 | 5.2 | 0.00 | 0.00 | 0.00 | 78 | 1014.4 |
| 20260507215035 | 49 | 193 | 2.6 | 5.2 | 0.00 | 0.00 | 0.00 | 78 | 1014.4 |
| 20260507214549 | 49 | 200 | 2.6 | 4.3 | 0.00 | 0.00 | 0.00 | 78 | 1014.4 |
| 20260507214034 | 49 | 170 | 2.6 | 4.3 | 0.00 | 0.00 | 0.00 | 78 | 1014.4 |
| 20260507213534 | 50 | 210 | 0.0 | 1.7 | 0.00 | 0.00 | 0.00 | 78 | 1014.4 |
| 20260507213047 | 50 | 0 | 0.0 | 5.2 | 0.00 | 0.00 | 0.00 | 78 | 1014.4 |
| 20260507212534 | 50 | 223 | 1.7 | 5.2 | 0.00 | 0.00 | 0.00 | 78 | 1014.5 |
| 20260507212038 | 50 | 189 | 2.6 | 5.2 | 0.00 | 0.00 | 0.00 | 78 | 1014.4 |
| 20260507211550 | 50 | 191 | 3.5 | 5.2 | 0.00 | 0.00 | 0.00 | 78 | 1014.3 |
| 20260507211033 | 50 | 192 | 3.5 | 7.0 | 0.00 | 0.00 | 0.00 | 78 | 1014.5 |
| 20260507210534 | 50 | 178 | 3.5 | 7.0 | 0.00 | 0.00 | 0.00 | 78 | 1014.5 |
| 20260507210048 | 50 | 187 | 3.5 | 7.0 | 0.00 | 0.00 | 0.00 | 77 | 1014.5 |
| 20260507205535 | 50 | 206 | 2.6 | 6.1 | 0.00 | 0.00 | 0.00 | 77 | 1014.5 |
| 20260507205033 | 50 | 191 | 2.6 | 6.1 | 0.00 | 0.00 | 0.00 | 77 | 1014.4 |
| 20260507204550 | 50 | 201 | 2.6 | 6.1 | 0.00 | 0.00 | 0.00 | 77 | 1014.4 |
| 20260507204034 | 50 | 220 | 2.6 | 6.1 | 0.00 | 0.00 | 0.00 | 77 | 1014.3 |
| 20260507203535 | 50 | 163 | 2.6 | 6.1 | 0.00 | 0.00 | 0.00 | 76 | 1014.3 |
| 20260507203052 | 50 | 164 | 1.7 | 7.8 | 0.00 | 0.00 | 0.00 | 76 | 1014.3 |
| 20260507202536 | 50 | 198 | 3.5 | 7.8 | 0.00 | 0.00 | 0.00 | 76 | 1014.2 |
| 20260507202034 | 50 | 207 | 4.3 | 7.0 | 0.00 | 0.00 | 0.00 | 76 | 1014.2 |
| 20260507201547 | 50 | 174 | 2.6 | 7.8 | 0.00 | 0.00 | 0.00 | 76 | 1014.1 |
| 20260507201034 | 51 | 210 | 2.6 | 7.8 | 0.00 | 0.00 | 0.00 | 75 | 1014.1 |
| 20260507200535 | 51 | 187 | 2.6 | 7.8 | 0.00 | 0.00 | 0.00 | 75 | 1014.1 |
| 20260507200047 | 51 | 142 | 2.6 | 7.0 | 0.00 | 0.00 | 0.00 | 75 | 1014.1 |
| 20260507195534 | 51 | 199 | 2.6 | 5.2 | 0.00 | 0.00 | 0.00 | 75 | 1014.1 |
| 20260507195034 | 51 | 165 | 1.7 | 5.2 | 0.00 | 0.00 | 0.00 | 74 | 1014.1 |
| 20260507194544 | 51 | 210 | 2.6 | 4.3 | 0.00 | 0.00 | 0.00 | 74 | 1014.1 |
| 20260507194034 | 51 | 207 | 0.9 | 6.1 | 0.00 | 0.00 | 0.00 | 74 | 1014.1 |
| 20260507193534 | 51 | 178 | 1.7 | 7.0 | 0.00 | 0.00 | 0.00 | 74 | 1014.0 |
| 20260507193054 | 51 | 195 | 3.5 | 7.0 | 0.00 | 0.00 | 0.00 | 74 | 1014.0 |
| 20260507192534 | 52 | 196 | 0.9 | 3.5 | 0.00 | 0.00 | 0.00 | 73 | 1014.0 |
| 20260507192034 | 52 | 117 | 0.0 | 6.1 | 0.00 | 0.00 | 0.00 | 73 | 1014.0 |
| 20260507191547 | 52 | 186 | 2.6 | 6.1 | 0.00 | 0.00 | 0.00 | 73 | 1013.9 |
| 20260507191036 | 52 | 186 | 2.6 | 6.1 | 0.00 | 0.00 | 0.00 | 73 | 1013.9 |
| 20260507190534 | 52 | 161 | 2.6 | 5.2 | 0.00 | 0.00 | 0.00 | 73 | 1013.9 |
| 20260507190049 | 52 | 193 | 1.7 | 5.2 | 0.00 | 0.00 | 0.00 | 73 | 1014.0 |
| 20260507185534 | 52 | 213 | 1.7 | 4.3 | 0.00 | 0.00 | 0.00 | 72 | 1013.9 |
| 20260507185034 | 52 | 152 | 1.7 | 5.2 | 0.00 | 0.00 | 0.00 | 72 | 1014.0 |
| 20260507184549 | 52 | 178 | 1.7 | 6.1 | 0.00 | 0.00 | 0.00 | 72 | 1013.9 |
| 20260507184037 | 53 | 206 | 1.7 | 7.0 | 0.00 | 0.00 | 0.00 | 72 | 1013.9 |
| 20260507183534 | 53 | 186 | 3.5 | 8.7 | 0.00 | 0.00 | 0.00 | 71 | 1013.9 |
| 20260507183045 | 53 | 213 | 4.3 | 8.7 | 0.00 | 0.00 | 0.00 | 71 | 1014.0 |
| 20260507182535 | 53 | 152 | 4.3 | 7.8 | 0.00 | 0.00 | 0.00 | 71 | 1014.0 |
| 20260507182107 | 53 | 191 | 4.3 | 10.4 | 0.00 | 0.00 | 0.00 | 71 | 1013.8 |
| 20260507181543 | 53 | 198 | 5.2 | 10.4 | 0.00 | 0.00 | 0.00 | 70 | 1013.8 |
| 20260507181034 | 53 | 178 | 4.3 | 12.2 | 0.00 | 0.00 | 0.00 | 70 | 1013.9 |
| 20260507180534 | 54 | 204 | 5.2 | 12.2 | 0.00 | 0.00 | 0.00 | 70 | 1013.9 |
| 20260507180050 | 54 | 178 | 6.1 | 13.0 | 0.00 | 0.00 | 0.00 | 69 | 1013.8 |
| 20260507175533 | 54 | 195 | 6.1 | 13.0 | 0.00 | 0.00 | 0.00 | 69 | 1013.8 |
| 20260507175034 | 54 | 209 | 6.1 | 12.2 | 0.00 | 0.00 | 0.00 | 69 | 1013.9 |
| 20260507174617 | 54 | 207 | 6.1 | 12.2 | 0.00 | 0.00 | 0.00 | 70 | 1013.8 |
| 20260507174034 | 55 | 181 | 5.2 | 12.2 | 0.00 | 0.00 | 0.00 | 69 | 1013.9 |
| 20260507173534 | 55 | 193 | 6.1 | 12.2 | 0.00 | 0.00 | 0.00 | 69 | 1013.7 |
| 20260507173048 | 55 | 196 | 4.3 | 12.2 | 0.00 | 0.00 | 0.00 | 69 | 1013.9 |
| 20260507172534 | 55 | 190 | 7.0 | 12.2 | 0.00 | 0.00 | 0.00 | 68 | 1013.9 |
| 20260507172034 | 55 | 185 | 5.2 | 10.4 | 0.00 | 0.00 | 0.00 | 68 | 1013.8 |
| 20260507171605 | 56 | 199 | 6.1 | 12.2 | 0.00 | 0.00 | 0.00 | 67 | 1013.9 |
| 20260507171034 | 56 | 194 | 5.2 | 12.2 | 0.00 | 0.00 | 0.00 | 67 | 1013.8 |
| 20260507170535 | 56 | 187 | 6.1 | 11.3 | 0.00 | 0.00 | 0.00 | 68 | 1013.8 |
| 20260507170057 | 56 | 165 | 5.2 | 10.4 | 0.00 | 0.00 | 0.00 | 68 | 1013.9 |
| 20260507165537 | 56 | 212 | 4.3 | 10.4 | 0.00 | 0.00 | 0.00 | 69 | 1013.9 |
| 20260507165031 | 56 | 193 | 6.1 | 12.2 | 0.00 | 0.00 | 0.00 | 69 | 1013.9 |
| 20260507164552 | 56 | 187 | 5.2 | 12.2 | 0.00 | 0.00 | 0.00 | 68 | 1013.9 |
| 20260507164031 | 56 | 162 | 6.1 | 10.4 | 0.00 | 0.00 | 0.00 | 69 | 1013.9 |
| 20260507163537 | 56 | 201 | 4.3 | 8.7 | 0.00 | 0.00 | 0.00 | 70 | 1013.9 |
| 20260507163048 | 55 | 199 | 4.3 | 9.6 | 0.00 | 0.00 | 0.00 | 69 | 1013.9 |
| 20260507162534 | 55 | 201 | 6.1 | 11.3 | 0.00 | 0.00 | 0.00 | 68 | 1013.9 |
| 20260507162031 | 55 | 171 | 6.1 | 11.3 | 0.00 | 0.00 | 0.00 | 68 | 1014.0 |
| 20260507161552 | 56 | 202 | 6.1 | 12.2 | 0.00 | 0.00 | 0.00 | 68 | 1013.9 |
| 20260507161033 | 56 | 206 | 7.0 | 12.2 | 0.00 | 0.00 | 0.00 | 68 | 1013.9 |
| 20260507160535 | 56 | 198 | 7.8 | 12.2 | 0.00 | 0.00 | 0.00 | 68 | 1014.0 |
| 20260507160110 | 56 | 213 | 5.2 | 12.2 | 0.00 | 0.00 | 0.00 | 68 | 1014.0 |
| 20260507155531 | 56 | 200 | 5.2 | 12.2 | 0.00 | 0.00 | 0.00 | 68 | 1014.0 |
| 20260507155032 | 55 | 165 | 5.2 | 9.6 | 0.00 | 0.00 | 0.00 | 69 | 1014.0 |
| 20260507154551 | 55 | 204 | 5.2 | 9.6 | 0.00 | 0.00 | 0.00 | 69 | 1014.0 |
| 20260507154032 | 55 | 222 | 4.3 | 9.6 | 0.00 | 0.00 | 0.00 | 69 | 1014.1 |
| 20260507153534 | 55 | 202 | 2.6 | 10.4 | 0.00 | 0.00 | 0.00 | 70 | 1014.1 |
| 20260507153044 | 55 | 202 | 3.5 | 10.4 | 0.00 | 0.00 | 0.00 | 70 | 1014.2 |
| 20260507152533 | 55 | 148 | 3.5 | 8.7 | 0.00 | 0.00 | 0.00 | 70 | 1014.1 |
| 20260507152036 | 55 | 192 | 2.6 | 8.7 | 0.00 | 0.00 | 0.00 | 70 | 1014.1 |
| 20260507151555 | 55 | 200 | 3.5 | 9.6 | 0.00 | 0.00 | 0.00 | 70 | 1014.2 |
| 20260507151035 | 55 | 189 | 5.2 | 9.6 | 0.00 | 0.00 | 0.00 | 70 | 1014.2 |
| 20260507150536 | 55 | 190 | 3.5 | 9.6 | 0.00 | 0.00 | 0.00 | 70 | 1014.2 |
| 20260507150051 | 54 | 202 | 4.3 | 9.6 | 0.00 | 0.00 | 0.00 | 69 | 1014.3 |
| 20260507145539 | 54 | 172 | 4.3 | 9.6 | 0.00 | 0.00 | 0.00 | 70 | 1014.5 |
| 20260507145032 | 54 | 223 | 4.3 | 9.6 | 0.00 | 0.00 | 0.00 | 69 | 1014.3 |
| 20260507144551 | 54 | 199 | 5.2 | 9.6 | 0.00 | 0.00 | 0.00 | 70 | 1014.4 |
| 20260507144036 | 54 | 254 | 3.5 | 10.4 | 0.00 | 0.00 | 0.00 | 69 | 1014.4 |
| 20260507143536 | 54 | 178 | 6.1 | 11.3 | 0.00 | 0.00 | 0.00 | 70 | 1014.5 |
| 20260507143052 | 54 | 234 | 5.2 | 11.3 | 0.00 | 0.00 | 0.00 | 70 | 1014.5 |
| 20260507142536 | 54 | 198 | 4.3 | 11.3 | 0.00 | 0.00 | 0.00 | 71 | 1014.6 |
| 20260507142036 | 54 | 205 | 4.3 | 11.3 | 0.00 | 0.00 | 0.00 | 71 | 1014.5 |
| 20260507141547 | 54 | 189 | 6.1 | 11.3 | 0.00 | 0.00 | 0.00 | 71 | 1014.6 |
| 20260507141036 | 54 | 193 | 6.1 | 10.4 | 0.00 | 0.00 | 0.00 | 71 | 1014.6 |
| 20260507140536 | 54 | 185 | 5.2 | 10.4 | 0.00 | 0.00 | 0.00 | 71 | 1014.7 |
| 20260507140053 | 54 | 181 | 6.1 | 10.4 | 0.00 | 0.00 | 0.00 | 70 | 1014.7 |
| 20260507135538 | 54 | 190 | 5.2 | 9.6 | 0.00 | 0.00 | 0.00 | 70 | 1014.6 |
| 20260507135037 | 54 | 189 | 5.2 | 10.4 | 0.00 | 0.00 | 0.00 | 70 | 1014.7 |
| 20260507134544 | 54 | 193 | 5.2 | 10.4 | 0.00 | 0.00 | 0.00 | 69 | 1014.5 |
| 20260507134035 | 55 | 219 | 5.2 | 9.6 | 0.00 | 0.00 | 0.00 | 69 | 1014.7 |
| 20260507133536 | 55 | 189 | 6.1 | 11.3 | 0.00 | 0.00 | 0.00 | 68 | 1014.7 |
| 20260507133057 | 55 | 217 | 5.2 | 12.2 | 0.00 | 0.00 | 0.00 | 67 | 1014.7 |
| 20260507132535 | 55 | 195 | 3.5 | 12.2 | 0.00 | 0.00 | 0.00 | 67 | 1014.7 |
| 20260507132035 | 55 | 198 | 6.1 | 12.2 | 0.00 | 0.00 | 0.00 | 67 | 1014.7 |
| 20260507131613 | 55 | 161 | 3.5 | 11.3 | 0.00 | 0.00 | 0.00 | 65 | 1014.8 |
| 20260507131038 | 55 | 200 | 1.7 | 6.1 | 0.00 | 0.00 | 0.00 | 67 | 1014.7 |
| 20260507130535 | 55 | 0 | 0.9 | 6.1 | 0.00 | 0.00 | 0.00 | 67 | 1014.6 |
| 20260507130047 | 55 | 287 | 1.7 | 4.3 | 0.00 | 0.00 | 0.00 | 68 | 1014.6 |
| 20260507125537 | 55 | 1 | 0.9 | 5.2 | 0.00 | 0.00 | 0.00 | 67 | 1014.7 |
| 20260507125035 | 55 | 18 | 1.7 | 5.2 | 0.00 | 0.00 | 0.00 | 68 | 1014.7 |
| 20260507124553 | 54 | 346 | 2.6 | 5.2 | 0.00 | 0.00 | 0.00 | 69 | 1014.7 |
| 20260507124036 | 54 | 13 | 2.6 | 5.2 | 0.00 | 0.00 | 0.00 | 68 | 1014.7 |
| 20260507123536 | 55 | 336 | 1.7 | 5.2 | 0.00 | 0.00 | 0.00 | 67 | 1014.7 |
| 20260507123047 | 55 | 1 | 2.6 | 6.1 | 0.00 | 0.00 | 0.00 | 67 | 1014.7 |
| 20260507122536 | 55 | 336 | 2.6 | 6.1 | 0.00 | 0.00 | 0.00 | 67 | 1014.5 |